Showing default

NANOFF B, 58755

Orbit data source: Space-Track

NANOFF B, 58755 is a payload satellite owned by TUB (DE) in SSO that was launched on Fri, 01 Dec 2023 UTC via an FALCON 9 launch vehicle from the Air Force Western Test Range (AFWTR). Payload-class satellites include a variety of spacecraft equipped with specific instruments for various scientific and technological missions. These include communications satellites like Starlink; space stations such as the ISS; scientific satellites like the Hubble; Earth observation satellites from companies like Planet Labs, Umbra, and HawkEye 360; GPS; miniature CubeSats for education and research; and military/defense satellites.

Loading next visibility...
Identifier
58755, 2023-185S
Orbit
SSO
Country
Flag of DEDE / GER
Related business
Manufacturer
TUB
Mission
Operational Amateur Technology
Bus & Motor
CUBESAT 2U, Unknown motor
Mass
2.7 kg wet, 2.7 kg dry
Launch date (UTC)
2023-12-01 (3 years ago)
Launch vehicle
FALCON 9
Launch site
Air Force Western Test Range (AFWTR)
Object type
Payload
Rocket body
Debris
Shape & HBR
Box + 2 Pan, 0.3 m
Radar Cross Section
0.046 m², Medium (>0.1 m² and < 1m²)

Expand to show TLE details & history
Last TLE update: 1 week ago

TLE from 1 week ago
0 NANOFF B
1 58755U 23185S   26155.22032544  .00003669  00000-0  21601-3 0  9997
2 58755  97.5261 222.8757 0012029 357.3807   2.7359 15.12194426131918
Epoch: 2026-06-04T05:17Z
TLE epoch observation values (Epoch: 2026-06-04T05:17:16.118Z)
Latitude
0.00005°
Longitude
-109.10918°
Altitude
524.284 km
Speed
7.606 km/s
True Right ascension
14h 51m 30s
True Declination
0° 00' 00"
Sunlit
Object was in full shadow at epoch
Visualization orbit readout
Latitude
Unknown
Longitude
Unknown
Altitude
Unknown
Speed
Unknown
Apparent Right ascension
Unknown
Apparent Declination
Unknown
Sunlit
N/A
Visualization observer readout
Local Sidereal Time
08:55:55
Azimuth
Unknown
Elevation
Unknown
Doppler factor
Unknown
Orbital elements
Apogee altitude
534.796 km
Perigee altitude
518.185 km
Semi-major axis
6,904.628 km
Eccentricity
0.0012
Inclination
97.5261°
RAAN
222.8757°
Arg. of periapsis
357.3807°
True anomaly
2.74249°
Mean anomaly
2.7359°
Eccentric anomaly
2.73919°
Mean motion
3.78297 °/min
Orbital period
95.16 mins
BSTAR
0.00021601
Loading maneuver chart data...
Computing Atmospheric mass density...
Loading historical data...
Loading historical data...
Loading historical data...
Loading historical data...
Loading historical data...
Loading historical data...
Loading historical data...

Documentation

Showing up to 5 results
|